BMCB-31 Weather Reports


time (UTC)temp
C
wind
direction
speed
KPH
gust
KPH
rain 1hr
cm
rain 24hr
cm
rain mn
cm
humidity
%
barometer
mb
20260506023057 7 0 0.0 0.0 0.15 1.40 0.38 10 1008.5
20260506022054 7 0 0.0 0.0 0.15 1.37 0.36 10 1008.5
20260505232100 8 0 0.0 0.0 0.10 1.12 0.10 10 1009.6
20260505231059 8 0 0.0 0.0 0.08 1.09 0.08 10 1009.6
20260505225100 8 0 0.0 0.0 0.10 1.07 0.05 10 1009.7
20260505221103 8 0 0.0 0.0 0.05 1.02 0.00 10 1009.7
20260505215100 8 0 0.0 0.0 0.08 1.02 1.02 10 1009.8
20260505205057 8 0 0.0 0.0 0.15 0.97 0.97 10 1010.1
20260505204100 8 0 0.0 0.0 0.20 0.94 0.94 10 1010.2
20260505202101 8 0 0.0 0.0 0.18 0.89 0.89 10 1010.1
20260505200059 8 0 0.0 0.0 0.20 0.84 0.84 10 1010.0
20260505195057 8 0 0.0 0.0 0.18 0.81 0.81 10 1010.0
20260505194059 8 0 0.0 0.0 0.20 0.79 0.79 10 1009.9
20260505192100 9 0 0.0 0.0 0.15 0.74 0.74 10 1009.8
20260505191058 9 0 0.0 0.0 0.15 0.71 0.71 10 1009.8
20260505181102 10 0 0.0 0.0 0.23 0.58 0.58 10 1009.7
20260505170057 10 0 0.0 0.0 0.23 0.33 0.33 10 1009.8
20260505165058 10 0 0.0 0.0 0.23 0.33 0.33 10 1009.8
20260505164056 10 0 0.0 0.0 0.20 0.28 0.28 10 1009.9
20260505163100 10 0 0.0 0.0 0.18 0.25 0.25 10 1009.9
20260505162059 10 0 0.0 0.0 0.15 0.23 0.23 10 1009.9
20260505153059 10 0 0.0 0.0 0.00 0.08 0.08 99 1010.1
20260505152059 10 0 0.0 0.0 0.00 0.08 0.08 99 1010.1
20260505151056 11 0 0.0 0.0 0.00 0.08 0.08 98 1010.0
20260505124055 12 0 0.0 0.0 0.05 0.43 0.08 93 1010.4
20260505123054 13 0 0.0 0.0 0.00 0.36 0.03 90 1010.4
20260505120054 13 0 0.0 0.0 0.00 0.36 0.03 88 1010.4
20260505115054 13 0 0.0 0.0 0.00 0.36 0.03 88 1010.5
20260505114056 13 0 0.0 0.0 0.00 0.36 0.03 89 1010.6
20260505113055 13 0 0.0 0.0 0.00 0.36 0.03 91 1010.7
20260505112055 12 0 0.0 0.0 0.00 0.36 0.03 89 1010.8
20260505102054 12 0 0.0 0.0 0.00 0.36 0.03 89 1011.0
20260505101059 13 0 0.0 0.0 0.00 0.36 0.03 89 1011.0
20260505100056 13 0 0.0 0.0 0.00 0.36 0.03 90 1011.0
20260505095054 12 0 0.0 0.0 0.00 0.36 0.03 91 1011.1
20260505094055 12 0 0.0 0.0 0.00 0.36 0.03 92 1011.1
20260505093057 12 0 0.0 0.0 0.00 0.36 0.03 93 1011.2
20260505091055 12 0 0.0 0.0 0.00 0.36 0.03 92 1011.3
20260505090053 12 0 0.0 0.0 0.00 0.36 0.03 90 1011.3
20260505085056 12 0 0.0 0.0 0.00 0.36 0.03 91 1011.3
20260505083054 12 0 0.0 0.0 0.00 0.36 0.03 92 1011.4
20260505082057 12 0 0.0 0.0 0.00 0.36 0.03 93 1011.4
20260505081056 12 0 0.0 0.0 0.00 0.36 0.03 94 1011.5
20260505075053 12 0 0.0 0.0 0.00 0.36 0.03 95 1011.6
20260505074057 12 0 0.0 0.0 0.00 0.36 0.03 95 1011.6
20260505073055 12 0 0.0 0.0 0.00 0.36 0.03 96 1011.7
20260505071058 11 0 0.0 0.0 0.00 0.36 0.03 98 1011.8
20260505070051 11 0 0.0 0.0 0.00 0.36 0.03 99 1011.8
20260505065057 11 0 0.0 0.0 0.00 0.36 0.03 10 1011.9
20260505064053 11 0 0.0 0.0 0.00 0.36 0.03 10 1011.9
20260505062053 11 0 0.0 0.0 0.00 0.36 0.03 10 1012.1
20260505061052 11 0 0.0 0.0 0.00 0.36 0.03 10 1012.1
20260505060058 10 0 0.0 0.0 0.00 0.36 0.03 10 1012.1
20260505055053 10 0 0.0 0.0 0.00 0.36 0.03 10 1012.1
20260505054058 10 0 0.0 0.0 0.00 0.36 0.03 10 1012.1
20260505053055 10 0 0.0 0.0 0.00 0.36 0.03 10 1012.1
20260505051055 10 0 0.0 0.0 0.00 0.36 0.03 10 1012.1
20260505041055 10 0 0.0 0.0 0.00 0.36 0.03 99 1012.1
20260505040055 10 0 0.0 0.0 0.00 0.36 0.03 99 1012.1
20260505035056 10 0 0.0 0.0 0.00 0.36 0.03 99 1012.2
20260505034055 10 0 0.0 0.0 0.03 0.36 0.03 99 1012.3